SES-2

Last updated on Sun Apr 12 2026 00:02:52 GMT+0000 (Coordinated Universal Time)

1 37809U 11049A 26101.50344398 -.00000194 00000+0 00000+0 0 9991 2 37809 0.0547 67.6383 0002909 315.9938 270.3368 1.00272401 53291
UTC large
Height (km)
Speed (km/s)
/
Latitude / Longitude
Inclination (degrees)
Orbital Period (minutes)
Azimuth
Elevation
Range (km)
Doppler Factor

Next 0 passes for location: London (51.5072 / 0.1276)

Sorry there are no passes over London.
SES-2